Location: *
(46.1333°S, 161.2167°W)
Time: 09:28:22
(UTC+00:00)

Cosmos 2298 Rocket - Pass Details

Date: 29 October 2020
Orbit: 776 x 783 km, 74.0° (Epoch: 04 December)

Event Time Altitude Azimuth Distance (km) Brightness Sun altitude
Exits shadow 10:00:12 20° 107° (ESE) 1,792 5.9 -29.9°
Drops below altitude 10° 10:02:43 10° 132° (SE) 2,371 6.9 -29.9°
Sets 10:05:36 0° 146° (SE) 3,309 8.0 -30.0°
